Location: ??????
(41.3164°N, 22.6615°E)
Time: 18:05:47
(UTC+00:00)

NOAA 16 DEB - Visible Passes

Search period start: 11 August 2022 00:00
Search period end: 21 August 2022 00:00
Orbit: 824 x 834 km, 99.0° (Epoch: 10 August)

Date Brightness Start Highest point End Pass type
(mag) Time Alt. Az. Time Alt. Az. Time Alt. Az.
11 Aug ? 00:23:18 73° NW 00:23:18 73° NW 00:28:17 10° NNW visible
11 Aug ? 22:24:40 10° ENE 22:25:28 10° NE 22:26:17 10° NE visible
12 Aug ? 00:05:01 70° NE 00:05:01 70° NE 00:10:08 10° N visible
12 Aug ? 01:46:33 14° WNW 01:46:33 14° WNW 01:48:23 10° WNW visible
12 Aug ? 23:46:43 50° ENE 23:46:43 50° ENE 23:51:52 10° N visible
13 Aug ? 01:28:16 20° WNW 01:28:16 20° WNW 01:31:12 10° NW visible
13 Aug ? 23:28:25 35° ENE 23:28:36 35° ENE 23:33:28 10° N visible
14 Aug ? 01:09:59 28° WNW 01:09:59 28° WNW 01:13:36 10° NW visible
14 Aug ? 23:10:07 24° ENE 23:10:37 25° ENE 23:14:56 10° N visible
15 Aug ? 00:51:41 40° WNW 00:51:41 40° WNW 00:55:45 10° NNW visible
15 Aug ? 22:51:50 17° ENE 22:52:40 18° ENE 22:56:11 10° NNE visible
16 Aug ? 00:33:22 54° NW 00:33:22 54° NW 00:37:45 10° NNW visible
16 Aug ? 22:33:30 12° ENE 22:34:47 12° ENE 22:36:56 10° NNE visible
17 Aug ? 00:15:04 63° N 00:15:04 63° N 00:19:37 10° NNW visible
17 Aug ? 01:56:37 11° WNW 01:56:37 11° WNW 01:56:58 10° WNW visible
17 Aug ? 23:56:45 54° NE 23:56:45 54° NE 00:01:21 10° N visible
18 Aug ? 01:38:18 16° WNW 01:38:18 16° WNW 01:40:14 10° NW visible
18 Aug ? 23:38:25 40° NE 23:38:25 40° NE 23:42:59 10° N visible
19 Aug ? 01:19:58 22° WNW 01:19:58 22° WNW 01:22:46 10° NW visible
19 Aug ? 23:20:06 29° ENE 23:20:06 29° ENE 23:24:29 10° N visible
20 Aug ? 01:01:39 30° WNW 01:01:39 30° WNW 01:04:58 10° NNW visible
20 Aug ? 23:01:46 21° ENE 23:01:53 21° ENE 23:05:49 10° NNE visible
